Location: Chandrammap?lem
(16.9200°N, 81.0051°E)
Time: 12:40:56
(UTC+00:00)

USA 229 DEB - Pass Details

Date: 29 May 2024
Orbit: 892 x 1319 km, 63.4° (Epoch: 30 May)

Event Time Altitude Azimuth Distance (km) Brightness Sun altitude
Rises 15:24:49 0° 335° (NNW) 4,168 7.7 -29.7°
Reaches altitude 10° 15:27:33 10° 336° (NNW) 3,243 6.9 -30.3°
Maximum altitude 15:35:33 88° 64° (ENE) 1,312 4.0 -31.7°
Enters shadow 15:36:15 77° 149° (SSE) 1,340 3.9 -31.9°
